Terminal Aerodrome Forecast
Issued by NWS Charleston, WV

Current Version | Previous Version | Graphics & Text | Print | Product List | Glossary On
Versions: 1 2 3 4 5 6 7 8 9 10 11 12 13 14 15 16 17 18 19 20 21 22 23 24 25 26 27 28 29
000
FTUS41 KRLX 181100
TAFEKN
TAF
KEKN 181127Z 1812/1912 28010G19KT P6SM OVC035
     FM181300 30012G22KT P6SM BKN028
     FM181500 28011G19KT P6SM BKN022
     FM181800 28012G20KT 6SM -RA BR BKN020
     FM190200 30011G19KT 6SM BR OVC012=

USA.gov is the U.S. government's official web portal to all federal, state and local government web resources and services.